• In Romania
  • List of Countries
  • For 7 days
  • Water Temperature
  • Satellite Maps
  • Weather Map
  • Weather Widgets
  • user-avatar
    Login

    Hourly Weather Rovinj

    Today, 22 June, Friday

    Time Temperature Precipitation Wind Pressure Humidity
    00:00 +22°C° 0.3 mm 4 mps 757 mmHg 87%
    01:00 +22°C° 0 mm 3 mps 757 mmHg 87%
    02:00 +21°C° 0.8 mm 4 mps 757 mmHg 88%
    03:00 +21°C° 0.8 mm 4 mps 757 mmHg 90%
    04:00 +21°C° 0.8 mm 4 mps 757 mmHg 92%
    05:00 +21°C° 2.4 mm 5 mps 757 mmHg 92%
    06:00 +21°C° 2.4 mm 5 mps 757 mmHg 92%
    07:00 +20°C° 0 mm 6 mps 758 mmHg 90%
    08:00 +18°C° 5.3 mm 7 mps 758 mmHg 91%
    09:00 +17°C° 5.3 mm 9 mps 758 mmHg 92%
    10:00 +16°C° 5.3 mm 10 mps 759 mmHg 93%
    11:00 +16°C° 0.9 mm 11 mps 759 mmHg 91%
    12:00 +16°C° 0.9 mm 11 mps 760 mmHg 89%
    13:00 +14°C° 0.9 mm 11 mps 760 mmHg 87%
    14:00 +17°C° 0.2 mm 11 mps 760 mmHg 77%
    15:00 +19°C° 0.2 mm 10 mps 760 mmHg 67%
    16:00 +21°C° 0.2 mm 9 mps 760 mmHg 57%
    17:00 +21°C° 0 mm 8 mps 760 mmHg 59%
    18:00 +20°C° 0 mm 8 mps 761 mmHg 61%
    19:00 +18°C° 0 mm 7 mps 761 mmHg 63%
    20:00 +17°C° 0 mm 7 mps 762 mmHg 63%
    21:00 +17°C° 0 mm 7 mps 762 mmHg 62%
    22:00 +16°C° 0 mm 7 mps 763 mmHg 61%
    23:00 +16°C° 0 mm 7 mps 763 mmHg 61%

    Tomorrow, 23 June, Saturday

    Time Temperature Precipitation Wind Pressure Humidity
    00:00 +16°C° 0 mm 7 mps 763 mmHg 61%
    01:00 +16°C° 0 mm 7 mps 764 mmHg 61%
    02:00 +15°C° 0 mm 7 mps 764 mmHg 63%
    03:00 +15°C° 0 mm 7 mps 764 mmHg 66%
    04:00 +14°C° 0 mm 6 mps 764 mmHg 68%
    05:00 +15°C° 0 mm 6 mps 764 mmHg 66%
    06:00 +16°C° 0 mm 6 mps 764 mmHg 63%
    07:00 +17°C° 0 mm 6 mps 764 mmHg 61%
    08:00 +20°C° 0 mm 5 mps 764 mmHg 55%
    09:00 +22°C° 0 mm 5 mps 764 mmHg 49%
    10:00 +23°C° 0 mm 4 mps 764 mmHg 43%
    11:00 +25°C° 0 mm 4 mps 764 mmHg 41%
    12:00 +26°C° 0 mm 3 mps 763 mmHg 40%
    13:00 +27°C° 0 mm 3 mps 763 mmHg 38%
    14:00 +26°C° 0 mm 3 mps 763 mmHg 41%
    15:00 +26°C° 0 mm 3 mps 762 mmHg 43%
    16:00 +25°C° 0 mm 3 mps 762 mmHg 45%
    17:00 +24°C° 0 mm 3 mps 762 mmHg 51%
    18:00 +22°C° 0 mm 3 mps 762 mmHg 58%
    19:00 +21°C° 0 mm 3 mps 762 mmHg 64%
    20:00 +20°C° 0 mm 3 mps 762 mmHg 66%
    21:00 +19°C° 0 mm 3 mps 763 mmHg 69%
    22:00 +18°C° 0 mm 3 mps 763 mmHg 71%
    23:00 +18°C° 0 mm 4 mps 763 mmHg 72%

    Day after tomorrow, 24 June, Sunday

    Time Temperature Precipitation Wind Pressure Humidity
    00:00 +17°C° 0 mm 4 mps 763 mmHg 73%
    01:00 +17°C° 0 mm 4 mps 763 mmHg 74%
    02:00 +17°C° 0 mm 4 mps 763 mmHg 74%
    03:00 +17°C° 0 mm 4 mps 763 mmHg 74%
    04:00 +15°C° 0 mm 4 mps 763 mmHg 73%
    05:00 +18°C° 0 mm 4 mps 763 mmHg 70%
    06:00 +19°C° 0 mm 4 mps 763 mmHg 66%
    07:00 +20°C° 0 mm 4 mps 763 mmHg 63%
    08:00 +21°C° 0 mm 4 mps 763 mmHg 57%
    09:00 +24°C° 0 mm 3 mps 762 mmHg 52%
    10:00 +25°C° 0 mm 3 mps 762 mmHg 47%
    11:00 +26°C° 0.1 mm 3 mps 762 mmHg 50%
    12:00 +26°C° 0.1 mm 2 mps 762 mmHg 52%
    13:00 +26°C° 0.1 mm 2 mps 762 mmHg 55%
    14:00 +26°C° 0.2 mm 2 mps 762 mmHg 57%
    15:00 +26°C° 0.2 mm 1 mps 761 mmHg 59%
    16:00 +25°C° 0.2 mm 1 mps 761 mmHg 61%
    17:00 +24°C° 0.1 mm 2 mps 761 mmHg 65%
    18:00 +23°C° 0.1 mm 2 mps 761 mmHg 69%
    19:00 +21°C° 0.1 mm 3 mps 761 mmHg 73%
    20:00 +20°C° 0.1 mm 3 mps 762 mmHg 75%
    21:00 +20°C° 0.1 mm 4 mps 762 mmHg 76%
    22:00 +19°C° 0.1 mm 5 mps 762 mmHg 78%
    23:00 +19°C° 0 mm 5 mps 762 mmHg 78%

    25 June, Monday

    Time Temperature Precipitation Wind Pressure Humidity
    00:00 +19°C° 0 mm 5 mps 762 mmHg 78%
    01:00 +19°C° 0 mm 5 mps 762 mmHg 78%
    02:00 +17°C° 0 mm 5 mps 762 mmHg 77%
    03:00 +17°C° 0 mm 5 mps 762 mmHg 76%
    04:00 +17°C° 0 mm 5 mps 762 mmHg 75%
    05:00 +17°C° 0 mm 5 mps 762 mmHg 73%
    06:00 +19°C° 0 mm 6 mps 762 mmHg 71%
    07:00 +20°C° 0 mm 6 mps 762 mmHg 69%
    08:00 +21°C° 0 mm 6 mps 762 mmHg 62%
    09:00 +22°C° 0 mm 6 mps 762 mmHg 55%
    10:00 +25°C° 0 mm 5 mps 762 mmHg 48%
    11:00 +26°C° 0 mm 5 mps 762 mmHg 45%
    12:00 +26°C° 0 mm 4 mps 762 mmHg 43%
    13:00 +27°C° 0 mm 3 mps 762 mmHg 40%
    14:00 +27°C° 0 mm 3 mps 762 mmHg 44%
    15:00 +26°C° 0 mm 3 mps 762 mmHg 48%
    16:00 +26°C° 0 mm 3 mps 762 mmHg 52%
    17:00 +25°C° 0 mm 3 mps 762 mmHg 58%
    18:00 +24°C° 0 mm 3 mps 762 mmHg 63%
    19:00 +22°C° 0 mm 3 mps 763 mmHg 69%
    20:00 +21°C° 0 mm 4 mps 763 mmHg 71%
    21:00 +20°C° 0 mm 4 mps 763 mmHg 72%
    22:00 +19°C° 0 mm 4 mps 764 mmHg 74%
    23:00 +17°C° 0 mm 5 mps 764 mmHg 74%

    26 June, Tuesday

    Time Temperature Precipitation Wind Pressure Humidity
    00:00 +17°C° 0 mm 5 mps 764 mmHg 73%
    01:00 +17°C° 0 mm 6 mps 764 mmHg 73%
    02:00 +17°C° 0 mm 6 mps 764 mmHg 72%
    03:00 +17°C° 0 mm 6 mps 764 mmHg 72%
    04:00 +17°C° 0 mm 7 mps 763 mmHg 71%
    05:00 +18°C° 0 mm 7 mps 763 mmHg 68%
    06:00 +20°C° 0 mm 7 mps 763 mmHg 64%
    07:00 +21°C° 0 mm 7 mps 763 mmHg 61%
    08:00 +22°C° 0 mm 7 mps 763 mmHg 56%
    09:00 +24°C° 0 mm 7 mps 763 mmHg 51%
    10:00 +26°C° 0 mm 7 mps 763 mmHg 46%
    11:00 +27°C° 0 mm 6 mps 763 mmHg 44%
    12:00 +28°C° 0 mm 6 mps 762 mmHg 42%
    13:00 +28°C° 0 mm 5 mps 762 mmHg 40%
    14:00 +28°C° 0 mm 5 mps 762 mmHg 41%
    15:00 +28°C° 0 mm 5 mps 762 mmHg 41%
    16:00 +29°C° 0 mm 5 mps 762 mmHg 42%
    17:00 +27°C° 0 mm 4 mps 762 mmHg 48%
    18:00 +26°C° 0 mm 4 mps 762 mmHg 54%
    19:00 +25°C° 0 mm 4 mps 762 mmHg 60%
    20:00 +23°C° 0 mm 4 mps 762 mmHg 61%
    21:00 +22°C° 0 mm 5 mps 763 mmHg 62%
    22:00 +21°C° 0 mm 5 mps 763 mmHg 63%
    23:00 +21°C° 0 mm 5 mps 763 mmHg 63%

    27 June, Wednesday

    Time Temperature Precipitation Wind Pressure Humidity
    00:00 +21°C° 0 mm 5 mps 763 mmHg 63%
    01:00 +21°C° 0 mm 5 mps 763 mmHg 63%
    02:00 +20°C° 0 mm 5 mps 763 mmHg 63%
    03:00 +20°C° 0 mm 6 mps 763 mmHg 63%
    04:00 +20°C° 0 mm 6 mps 762 mmHg 63%
    05:00 +21°C° 0 mm 6 mps 762 mmHg 62%
    06:00 +22°C° 0 mm 6 mps 763 mmHg 61%
    07:00 +23°C° 0 mm 7 mps 763 mmHg 59%
    08:00 +24°C° 0 mm 6 mps 762 mmHg 55%
    09:00 +26°C° 0 mm 6 mps 762 mmHg 50%
    10:00 +28°C° 0 mm 6 mps 762 mmHg 45%
    11:00 +28°C° 0 mm 5 mps 762 mmHg 43%
    12:00 +29°C° 0 mm 5 mps 762 mmHg 41%
    13:00 +30°C° 0 mm 5 mps 761 mmHg 39%
    14:00 +30°C° 0 mm 5 mps 761 mmHg 40%
    15:00 +30°C° 0 mm 4 mps 761 mmHg 40%
    16:00 +30°C° 0 mm 4 mps 761 mmHg 41%
    17:00 +29°C° 0 mm 4 mps 761 mmHg 47%
    18:00 +27°C° 0 mm 4 mps 761 mmHg 54%
    19:00 +26°C° 0 mm 4 mps 761 mmHg 61%
    20:00 +25°C° 0 mm 4 mps 761 mmHg 62%
    21:00 +23°C° 0 mm 4 mps 762 mmHg 62%
    22:00 +23°C° 0 mm 4 mps 762 mmHg 63%
    23:00 +22°C° 0 mm 4 mps 762 mmHg 64%
    Show more